Location: Arlington
(31.4185°N, 90.5568°W)
Time: 07:12:21
(UTC+00:00)

X-37B - Visible Passes

Search period start: 23 September 2021 00:00
Search period end: 03 October 2021 00:00
Orbit: 381 x 393 km, 45.0° (Epoch: 29 August)

Date Brightness Start Highest point End Pass type
(mag) Time Alt. Az. Time Alt. Az. Time Alt. Az.
23 Sep 2.8 10:08:40 20° N 10:08:40 20° N 10:10:08 10° NNE visible
24 Sep 3.1 10:45:19 10° NNW 10:46:08 11° NNW 10:47:06 10° N visible
30 Sep 3.3 11:22:37 10° NNW 11:24:33 15° NNE 11:26:28 10° ENE visible
01 Oct 3.5 10:25:13 10° N 10:25:53 10° NNE 10:26:32 10° NNE visible
02 Oct 2.7 11:01:59 10° NNW 11:04:36 23° NNE 11:07:13 10° E visible
